Theta_e
322 323 323 323 322 320 314 309 304 302 302 302 302 303 303 303 303 303 304 305 306 308 313 318 314 315 309 313 315 315 314 315 316 315 316 315 315 314 313 314 315 316 317 318 318 318 318
322 322 321 320 316 308 304 303 303 302 302 302 302 303 303 303 303 303 304 304 305 307 311 314 311 313 310 314 313 313 313 313 315 315 316 316 315 315 314 315 313 315 316 316 317 317 316
319 318 315 310 304 303 302 303 303 302 303 303 303 303 303 303 303 303 304 305 305 306 308 309 313 310 310 314 313 314 314 313 315 315 315 316 316 313 314 313 315 315 313 311 313 315 316
314 309 305 304 303 302 302 302 301 302 302 302 303 303 303 304 304 304 306 306 307 307 307 310 313 310 313 315 315 314 312 313 314 314 314 314 314 313 314 315 315 312 311 313 314 314 316
305 305 303 302 301 301 301 301 301 301 301 302 302 303 303 304 304 306 310 313 313 311 313 313 312 314 315 314 313 313 313 314 315 315 315 315 315 315 315 312 310 310 313 314 313 315 315
302 301 301 301 301 300 300 299 299 299 300 301 301 302 303 304 304 307 312 319 315 314 313 315 316 314 315 315 315 314 313 314 315 315 315 315 315 311 309 310 313 314 313 312 313 313 316
302 301 300 300 300 299 299 299 299 299 299 300 301 302 303 303 305 308 311 321 320 321 318 319 318 316 316 315 314 314 314 313 314 314 312 313 311 311 310 311 312 314 313 313 312 313 313
301 301 302 301 301 300 300 299 299 299 299 300 301 302 303 304 306 311 310 313 316 316 315 318 316 316 316 315 316 314 314 314 314 313 313 310 311 312 310 313 314 314 314 312 311 313 313
302 304 303 301 301 299 299 299 298 299 299 300 300 301 303 304 310 314 309 314 315 315 318 318 316 316 316 315 315 315 314 314 313 313 312 311 312 313 314 313 312 311 312 312 313 312 312
305 306 303 301 300 298 298 297 298 299 299 300 301 302 302 305 307 313 307 312 315 319 312 316 317 316 316 315 315 315 314 314 314 313 313 311 313 314 313 314 312 313 314 315 314 310 309
300 301 300 299 298 298 297 297 298 298 299 300 301 303 303 305 305 306 307 314 314 318 315 316 315 315 315 316 315 315 314 314 312 312 312 312 313 314 314 314 314 313 314 313 314 312 313
300 299 299 298 297 297 297 297 298 299 300 300 303 306 305 307 308 305 306 316 318 312 318 315 315 315 314 314 314 315 314 314 314 313 312 311 314 314 313 313 313 313 313 311 310 310 314
300 300 299 298 297 297 297 297 298 299 300 300 305 306 305 304 304 308 315 319 312 312 313 316 315 315 314 314 314 313 313 311 311 314 312 311 313 313 313 313 312 311 311 314 317 315 317
301 300 298 299 298 298 297 298 299 299 300 301 304 306 304 303 305 312 318 309 314 318 316 316 316 315 315 313 314 314 312 311 312 310 310 312 314 312 312 313 314 313 311 313 316 314 314
299 299 297 298 297 297 297 298 299 299 301 301 307 305 305 306 305 315 316 311 314 316 314 315 315 313 312 313 312 312 314 314 315 313 312 311 313 311 312 312 311 313 311 310 311 311 311
300 298 297 297 297 297 297 298 299 300 301 302 307 310 305 306 311 315 310 314 314 313 312 314 316 314 316 315 315 313 315 314 315 314 314 312 311 311 312 311 311 312 311 313 311 313 317
298 297 298 297 297 297 297 298 299 300 300 302 306 309 306 309 312 314 310 312 312 312 312 313 314 316 315 315 314 314 315 314 313 313 313 312 309 310 311 312 312 311 309 311 309 311 313
297 299 298 297 296 296 297 297 298 298 300 303 305 303 307 312 310 307 308 311 311 310 311 311 313 313 312 312 313 316 315 314 313 312 312 312 311 311 311 309 309 311 312 310 312 313 310
298 298 297 297 296 296 296 296 297 298 300 304 306 306 306 311 305 304 310 310 306 309 306 309 309 308 308 310 311 315 314 312 311 310 311 310 311 313 310 310 311 313 312 313 308 309 311
297 297 298 298 295 295 296 296 296 298 299 305 303 300 304 304 302 302 304 304 308 304 304 305 303 304 304 307 306 310 308 308 308 308 309 312 311 312 310 313 310 312 312 313 312 311 310
298 297 297 297 295 294 295 296 296 297 298 303 304 302 302 299 301 300 302 303 303 303 304 303 302 302 302 304 304 304 303 303 306 304 305 303 307 309 308 306 307 309 309 309 312 312 314
299 297 296 297 295 294 295 295 296 296 299 300 301 303 302 301 301 299 299 300 302 302 302 302 301 301 301 302 301 301 301 302 303 301 301 300 304 303 304 304 303 307 306 307 308 309 310
299 296 295 296 295 295 294 295 296 297 298 302 302 302 302 299 298 298 299 300 301 301 301 301 300 300 300 301 300 300 300 300 301 300 300 300 301 301 303 302 302 308 303 302 300 299 301
298 297 296 296 295 294 294 296 296 298 298 299 301 301 301 298 298 298 300 300 300 300 300 301 300 300 300 300 300 300 300 299 299 299 300 300 299 300 301 300 300 301 301 302 300 299 299
297 297 296 298 295 293 296 296 297 298 298 297 297 300 300 296 299 300 300 299 300 300 299 300 300 300 300 300 298 299 298 301 300 299 299 299 299 300 301 301 303 302 300 299 300 302 300
297 296 297 295 294 293 294 296 296 296 298 298 297 299 299 300 297 300 299 300 297 296 297 299 300 299 300 299 298 301 301 300 300 299 300 298 298 299 299 303 306 300 299 300 301 304 299
297 296 296 294 294 294 293 293 294 295 296 298 298 298 298 299 300 300 299 298 299 298 295 297 300 299 300 298 300 299 299 300 300 300 300 300 302 300 300 303 302 299 299 300 303 302 298
296 296 295 294 298 297 296 295 295 294 294 295 298 297 297 297 298 299 299 300 300 299 296 298 296 298 297 298 300 300 301 300 300 298 300 299 299 300 301 304 306 299 299 298 298 298 299
296 296 295 296 297 298 296 295 295 295 295 294 295 296 295 295 296 295 297 298 296 297 299 299 298 299 299 296 294 294 295 292 295 294 296 297 298 295 297 299 299 298 298 298 299 299 299
Wind_Speed
14 17 20 22 26 29 30 27 25 23 23 21 21 19 17 16 15 15 14 13 12 11 11 11 9 7 3 1 2 1 2 2 1 2 3 4 5 3 1 4 9 4 3 9 10 14 10
18 20 23 26 28 27 24 21 19 20 20 20 19 19 18 17 16 15 14 13 10 8 8 8 6 4 2 0 2 1 3 3 3 3 3 2 2 5 2 3 1 6 7 14 14 16 11
20 22 25 26 21 18 18 19 19 20 20 20 20 19 18 17 17 16 13 12 8 6 5 5 3 3 3 3 2 3 7 2 2 3 2 3 5 5 5 5 5 9 6 8 7 7 4
21 20 18 16 17 18 18 19 19 20 20 20 19 18 17 17 16 15 13 10 6 3 2 3 3 3 1 2 3 4 4 4 2 3 4 6 7 5 2 5 7 4 4 6 6 3 2
15 15 15 16 16 17 18 19 19 19 20 20 18 17 16 16 15 15 12 6 4 4 6 6 5 3 4 3 1 2 3 3 3 3 6 7 7 3 2 3 5 6 1 2 8 3 2
11 13 14 15 16 17 18 19 19 20 20 19 18 16 14 13 13 13 9 5 8 7 8 6 3 1 2 1 2 4 5 7 1 3 6 2 2 3 3 4 2 3 2 3 4 5 1
11 12 13 14 15 16 17 18 19 19 20 18 16 14 12 10 10 11 8 6 3 3 3 3 2 2 1 5 3 1 3 5 4 2 0 3 4 3 6 5 5 3 3 3 4 2 4
11 12 13 14 15 16 17 19 20 20 20 19 16 13 9 4 7 9 11 8 8 3 2 3 2 4 6 4 2 2 3 1 2 2 1 5 5 9 6 4 4 4 2 5 5 3 2
11 12 14 15 15 18 19 20 21 21 20 20 17 13 6 1 6 9 14 11 6 4 1 3 3 2 2 1 1 2 3 1 4 2 2 5 6 1 4 2 2 2 3 2 3 5 3
10 10 14 15 17 20 20 20 21 21 21 19 17 12 5 3 2 4 8 6 1 5 4 6 3 2 3 1 1 2 1 1 2 3 2 4 3 3 1 3 3 3 2 1 1 4 2
9 10 14 16 18 18 18 19 20 21 20 18 15 10 7 5 2 3 5 3 2 2 4 2 1 2 1 1 2 1 3 3 3 4 4 6 1 1 2 4 1 6 1 2 3 2 3
10 12 14 18 19 18 18 19 19 20 19 18 11 12 10 5 5 6 6 2 1 4 2 3 1 2 4 2 2 2 1 1 2 2 1 7 4 2 4 2 2 2 3 6 4 3 2
12 15 19 18 19 20 20 20 20 20 20 15 8 12 13 9 6 4 4 0 4 6 4 6 3 5 5 3 2 3 2 6 3 4 4 6 1 1 1 3 3 6 5 3 2 2 4
12 16 18 17 18 19 20 20 20 20 20 13 4 9 16 13 7 5 3 3 6 1 3 3 3 6 3 5 2 1 3 3 5 4 2 3 5 2 2 1 2 1 5 4 3 2 2
13 15 17 18 18 19 20 20 20 19 18 13 5 8 17 13 7 6 3 6 2 2 4 6 6 4 5 5 4 4 4 4 3 6 2 3 4 3 1 1 3 1 0 3 2 2 2
12 15 15 17 19 19 19 20 19 18 18 13 5 2 17 9 5 5 5 4 2 4 5 3 3 4 4 5 5 5 4 4 5 3 5 2 4 2 3 2 0 3 2 1 2 2 2
11 13 14 18 19 19 18 20 20 18 17 11 5 1 14 6 5 7 4 2 4 7 10 4 4 3 3 4 2 3 2 2 3 6 4 1 2 6 3 0 2 2 2 0 3 4 3
9 12 14 17 19 19 19 18 19 20 17 8 4 3 17 4 6 4 3 3 4 8 14 7 4 5 3 5 4 2 2 3 10 5 4 1 2 4 7 5 4 1 0 3 4 3 1
9 11 13 16 17 17 18 19 18 19 19 13 4 5 16 5 4 3 4 4 10 7 8 6 6 5 5 4 4 4 3 6 11 6 3 4 2 3 6 5 6 5 3 3 2 2 3
10 10 12 15 16 16 17 18 18 17 15 9 4 3 10 17 10 4 3 5 3 17 9 7 8 8 5 5 6 4 6 5 10 11 10 1 1 4 4 1 3 5 8 4 2 1 1
8 10 12 14 16 16 17 19 20 16 13 4 6 4 4 3 10 10 6 4 4 5 8 20 5 7 4 3 6 4 5 7 6 13 6 4 3 4 4 6 3 7 10 9 4 5 3
6 9 10 12 14 14 15 17 19 19 11 13 6 4 6 6 5 10 9 6 5 5 6 4 4 5 6 4 1 4 5 2 4 7 5 7 3 5 4 6 6 3 7 8 4 5 3
5 7 9 11 12 14 14 16 19 20 15 11 11 9 3 12 6 4 2 3 4 4 4 6 3 3 3 2 14 21 22 20 17 4 4 3 1 3 4 6 8 3 9 8 10 11 4
4 6 8 9 10 12 13 15 16 18 21 17 12 7 5 3 6 3 3 5 5 6 2 6 4 3 5 18 22 16 16 21 18 18 16 3 1 1 3 5 3 5 8 10 13 7 7
2 5 6 6 8 10 11 12 14 16 16 15 15 7 5 3 2 10 9 4 6 7 7 4 7 8 14 12 4 6 4 2 2 6 9 15 4 2 1 2 2 1 6 3 3 3 3
2 2 3 4 6 8 8 9 11 12 12 12 14 13 7 6 3 3 3 6 2 3 8 4 9 9 8 5 3 3 2 3 4 9 11 5 3 2 1 1 3 2 5 18 3 5 5
3 2 2 1 5 7 8 9 9 10 10 10 11 11 7 6 4 3 3 1 1 2 1 4 9 7 10 3 2 1 3 3 2 4 4 2 1 4 5 3 1 3 7 12 5 1 12
4 4 3 4 2 4 5 7 8 9 8 7 8 8 8 3 1 2 2 3 3 2 2 4 5 5 4 3 2 2 2 2 2 3 2 1 2 1 1 2 4 3 3 2 7 12 7
6 4 3 5 1 2 2 4 5 6 6 6 6 6 7 3 3 11 6 7 14 8 7 2 2 1 2 2 1 1 2 2 1 2 5 3 3 3 6 4 8 2 9 13 3 9 7
Wind_Direction
333 327 325 326 326 323 324 324 326 331 330 334 334 333 334 335 333 331 322 313 299 292 291 295 305 309 289 269 205 191 178 185 184 154 15 358 41 15 355 303 334 196 275 305 292 300 300
320 318 318 319 320 322 324 324 335 334 333 336 336 334 334 336 334 332 328 317 304 289 281 283 289 286 203 242 112 36 286 214 199 200 23 12 350 328 268 291 241 313 300 295 294 290 288
314 314 316 319 326 330 332 337 338 333 335 338 338 337 334 337 334 331 328 316 305 287 262 259 252 221 204 140 184 332 333 204 200 231 281 330 322 320 322 320 308 296 316 309 271 261 240
311 314 321 329 331 333 335 335 329 332 331 336 337 337 336 337 336 333 331 325 320 296 216 173 168 165 111 122 240 276 282 214 118 271 316 326 317 301 247 309 336 8 40 3 302 96 252
324 330 334 332 336 340 342 339 336 334 336 335 337 337 337 339 339 342 348 12 27 92 121 132 128 128 115 111 249 235 214 208 262 260 317 310 323 343 343 62 8 14 306 298 319 325 90
336 342 343 342 343 344 344 344 342 340 338 337 337 339 339 342 343 351 4 66 84 92 109 121 91 89 82 120 273 300 249 226 181 230 303 290 353 40 35 66 225 267 314 291 257 311 42
355 355 359 359 359 357 356 354 351 349 346 345 343 346 345 345 350 2 22 122 100 74 63 63 3 328 296 326 290 128 105 196 227 254 21 11 44 258 259 202 217 228 224 259 259 248 352
5 7 7 5 4 1 359 359 358 358 357 354 352 353 352 353 6 29 32 83 59 352 352 47 16 292 284 306 3 180 174 176 167 236 25 18 245 251 230 226 231 244 301 296 292 321 85
8 7 1 4 3 2 360 360 359 359 360 357 356 353 7 101 31 33 42 68 43 50 43 26 16 15 340 257 357 190 203 297 217 261 200 174 241 172 199 281 297 270 220 253 237 326 12
14 359 359 1 358 356 357 358 358 359 359 356 357 0 31 120 85 55 43 46 92 112 83 331 15 17 357 112 343 169 242 277 333 252 283 232 286 207 247 266 146 291 183 114 345 48 246
357 347 354 356 354 357 358 357 357 357 359 357 358 17 22 52 72 80 360 12 152 138 69 304 332 352 348 332 313 231 255 230 244 283 68 262 238 227 308 246 171 234 290 246 199 111 27
16 9 6 3 5 6 5 1 0 359 1 359 12 31 36 38 53 345 351 25 153 50 78 338 11 359 355 240 251 180 41 227 287 298 225 241 277 223 216 279 245 349 18 34 52 97 11
18 13 6 8 12 11 8 5 1 359 2 4 30 44 35 31 15 28 2 190 43 85 329 333 343 6 341 277 268 187 72 25 47 20 359 330 282 334 51 342 23 63 48 340 357 11 214
16 7 8 12 11 11 9 5 2 358 358 6 23 38 30 20 4 9 13 59 76 68 319 347 342 312 216 355 312 353 64 29 7 27 51 38 332 356 18 139 258 246 143 158 271 219 271
4 6 7 7 8 7 6 2 360 357 353 2 39 49 26 7 349 353 53 52 116 343 302 326 324 50 350 356 21 67 49 12 18 1 78 30 273 311 200 324 111 1 260 191 124 8 60
4 1 8 9 6 5 4 1 358 356 350 351 0 329 16 359 8 1 70 120 102 23 326 340 31 27 35 331 29 33 17 326 330 357 345 332 305 278 292 357 152 196 230 345 13 237 231
9 14 17 10 6 6 5 1 359 358 354 349 0 63 2 353 32 48 92 97 103 31 27 19 15 9 0 360 316 27 348 300 330 313 72 16 138 288 340 218 233 354 308 74 130 141 182
19 21 15 14 8 8 7 3 1 358 9 6 40 49 3 45 47 44 62 63 45 3 16 22 74 26 9 347 347 58 117 358 344 321 345 3 155 259 243 287 306 247 209 116 123 252 148
14 19 17 15 12 13 11 8 6 7 4 12 42 12 22 56 85 28 57 65 52 24 18 15 21 17 2 343 353 39 69 9 355 17 37 339 323 328 339 356 358 40 20 26 113 74 219
7 13 19 19 17 17 17 12 9 10 10 31 21 25 32 56 57 81 55 27 75 39 52 67 24 42 359 16 8 24 5 346 346 8 15 46 253 207 220 21 355 318 338 355 76 98 271
17 14 13 17 19 16 15 14 14 13 20 61 55 63 23 7 13 41 69 34 20 12 16 25 43 35 346 339 352 26 6 325 15 8 23 55 297 322 306 279 251 266 279 288 261 236 161
8 4 6 13 21 22 19 18 20 24 40 76 79 60 67 40 28 52 32 8 38 355 18 38 57 346 40 59 39 297 5 291 265 352 29 353 298 356 287 337 315 236 7 332 308 310 228
1 4 8 16 22 25 26 25 27 39 46 77 77 73 83 15 30 69 23 21 36 24 74 74 35 14 346 283 306 290 277 255 258 308 344 304 282 22 272 327 313 54 338 67 75 34 55
353 7 10 21 30 35 39 37 38 43 51 65 60 65 74 27 58 40 64 68 35 13 293 343 21 14 322 318 306 288 269 258 244 244 214 234 130 225 270 348 240 144 49 85 76 57 60
340 4 20 26 33 42 48 47 45 50 53 52 56 68 67 82 87 39 45 20 30 21 26 54 17 339 320 326 352 340 347 26 326 227 203 204 142 268 232 253 110 33 10 324 291 124 10
287 341 4 11 40 50 54 51 50 51 52 52 58 61 87 117 353 30 75 48 59 350 353 337 350 2 4 33 25 11 336 329 334 339 32 115 94 167 107 232 250 35 280 324 165 217 342
248 278 312 18 81 68 58 51 51 51 57 55 55 52 60 93 104 64 87 112 31 360 259 309 342 351 16 33 9 340 299 304 330 354 325 352 18 212 241 245 271 259 344 342 186 4 353
240 266 251 173 117 77 59 47 46 47 44 53 55 46 47 34 123 137 205 222 223 233 162 325 358 1 17 47 24 325 317 316 323 291 311 296 316 295 299 248 244 336 56 19 272 322 331
238 236 217 196 209 120 78 48 29 32 25 37 44 20 1 359 276 295 306 270 240 261 264 245 227 304 276 80 25 30 312 344 143 269 317 279 184 216 181 236 309 141 330 320 311 320 340